Location: Amsterdam
(30.7274°N, 84.4357°W)
Time: 01:25:03
(UTC+00:00)

Transit 2A Rocket - Pass Details

Date: 16 February 2026
Orbit: 583 x 900 km, 66.7° (Epoch: 12 March)

Event Time Altitude Azimuth Distance (km) Brightness Sun altitude
Rises 20:03:44 0° 162° (SSE) 3,405 8.7 36.7°
Reaches altitude 10° 20:06:59 10° 144° (SE) 2,513 7.9 36.2°
Maximum altitude 20:10:44 18° 104° (ESE) 2,057 7.1 35.7°
Drops below altitude 10° 20:14:33 10° 64° (ENE) 2,572 7.3 35.1°
Sets 20:17:53 0° 46° (NE) 3,517 7.9 34.6°
